SCP
0 0 0 0 0 0 0 0 0 0 0 0 0 0 0 0 0 0 0 0 0 0 0 0 0 0 0 0 0 0 0 0 0 0 0 0 0 0 0 0 0 0 0 0
0 0 0 0 0 0 0 0 0 0 0 0 0 0 0 0 0 0 0 0 0 0 0 0 0 0 0 0 0 0 0 0 0 0 0 0 0 0 0 0 0 0 0 0
0 0 0 0 0 0 0 0 0 0 0 0 0 -0 0 0 0 0 0 0 0 0 0 0 0 0 0 0 0 0 0 0 0 0 0 0 0 0 0 0 0 0 0 0
0 0 0 0 0 0 0 0 0 0 0 0 0 -0 0 0 0 0 0 0 0 0 0 0 0 0 0 0 0 0 0 0 0 0 0 0 0 0 0 0 0 0 0 0
0 0 0 0 0 0 0 0 0 0 0 0 0 0 -0 0 0 0 0 0 0 0 0 0 0 0 0 0 0 0 0 0 0 0 0 0 0 0 0 0 0 0 0 0
0 0 0 0 0 0 0 0 0 0 0 0 0 0 -0 -0 -0 0 0 0 0 0 0 0 0 0 0 0 0 0 0 0 0 0 0 0 0 0 0 0 0 0 0 0
0 0 0 0 0 0 0 0 0 0 0 0 0 0 0 0 0 0 0 0 0 0 0 0 0 0 0 0 0 0 0 0 0 0 0 0 0 0 0 0 0 0 0 0
0 0 0 0 0 0 0 0 0 0 0 0 0 0 0 0 0 0 0 -0 0 0 0 0 0 0 0 0 0 0 0 0 0 0 0 0 0 0 0 0 0 0 0 0
0 0 0 0 0 0 0 0 0 0 0 0 0 0 0 0 0 0 0 0 0 0 0 0 0 0 0 0 -0 0 0 0 0 0 0 0 0 0 0 0 0 0 0 0
0 0 0 0 0 0 0 0 0 0 0 0 0 0 0 0 0 0 0 0 0 0 0 0 0 0 -0 -0 -0 -0 -0 0 0 0 0 0 0 0 0 0 0 0 0 0
0 0 0 0 0 0 0 0 0 0 0 0 0 0 0 0 0 0 0 0 0 0 0 0 0 0 0 0 0 -0 -0 0 0 0 0 0 0 0 0 0 0 0 0 0
0 0 0 0 0 0 0 0 0 0 0 0 0 0 0 0 0 0 0 0 0 0 -0 -0 -0 -0 -0 -0 -0 0 0 0 0 0 0 0 0 0 0 0 0 0 0 0
0 0 0 0 0 0 0 0 0 0 0 0 0 0 0 0 0 0 0 -0 -0 -0 -0 -0 0 0 0 0 -0 0 0 0 0 0 0 0 0 0 0 0 0 0 0 0
0 0 0 0 0 0 0 0 0 0 0 0 0 0 0 0 0 0 -0 -0 -0 -0 0 0 0 0 0 0 0 0 0 0 0 0 0 0 0 0 0 0 0 0 0 0
0 0 0 0 0 0 0 0 0 0 0 0 0 0 0 0 0 0 -0 0 0 0 0 0 0 0 0 0 0 0 0 0 0 0 0 0 0 0 0 0 0 0 0 0
0 0 0 0 0 0 0 0 0 0 0 0 0 0 0 0 -0 0 0 0 0 0 0 0 0 0 0 0 0 0 0 0 0 0 0 0 0 0 0 0 0 0 0 0
0 0 0 0 0 0 0 0 0 0 0 0 0 0 0 0 0 0 -0 -0 -0 0 0 0 0 0 0 0 0 0 0 0 0 0 0 0 0 0 0 0 0 0 0 0
0 0 0 0 0 0 0 0 0 0 0 0 0 0 0 0 0 0 -0 0 0 0 0 0 0 0 -0 -0 -0 0 0 0 0 0 0 0 0 0 0 0 0 0 0 0
0 0 0 0 0 0 0 0 0 0 0 0 0 0 0 0 0 0 0 0 0 0 0 0 0 0 0 0 0 0 0 0 0 0 0 0 0 0 0 0 0 0 0 0
0 0 0 0 0 0 0 0 0 0 0 0 0 0 0 0 0 0 0 0 0 0 0 0 0 0 0 0 0 0 0 0 0 0 0 0 0 0 0 0 0 0 0 0
0 0 0 0 0 0 0 0 0 0 0 0 0 0 0 0 0 0 0 0 0 0 0 0 0 0 0 0 0 0 0 0 0 0 0 0 0 0 0 0 0 0 0 0
0 0 0 0 0 0 0 0 0 0 0 0 0 0 0 0 0 0 0 0 0 0 -0 -0 0 0 0 0 0 0 0 0 0 0 0 0 0 0 0 0 0 0 0 0
0 0 0 0 0 0 0 0 0 0 0 0 0 0 0 0 0 0 0 0 0 -0 -0 -0 0 0 0 0 0 0 0 0 0 0 0 0 0 0 0 0 0 0 0 0
0 0 0 0 0 0 0 0 0 0 0 0 0 0 0 0 0 0 0 0 0 0 -0 -0 0 0 0 0 0 0 0 0 0 0 0 0 0 0 0 0 0 0 0 0
0 0 0 0 0 0 0 0 0 0 0 0 0 0 0 0 0 0 0 0 0 0 0 0 0 0 0 0 0 0 0 0 0 0 0 0 0 0 0 0 0 0 0 0
0 0 0 0 0 0 0 0 0 0 0 0 0 0 0 0 0 0 0 0 0 0 0 0 0 0 0 0 0 0 0 0 0 0 0 0 0 0 0 0 0 0 0 0
Wind_Speed_500mb
4 8 13 20 13 8 10 6 4 3 3 8 14 15 22 44 43 46 55 59 60 63 57 51 49 53 59 62 64 66 73 75 80 85 85 84 86 85 84 81 79 76 73 72
10 8 13 8 8 8 6 5 7 4 1 5 8 21 21 25 41 56 57 56 62 64 62 57 54 53 55 61 68 70 70 74 81 86 88 91 86 90 88 87 86 83 79 79
13 7 15 10 8 11 6 10 7 8 4 4 7 17 12 10 14 26 41 42 38 40 37 33 44 51 56 62 63 72 74 73 73 82 89 94 97 96 92 92 91 87 84 81
6 4 10 8 8 9 9 7 4 5 6 7 5 11 12 12 18 18 46 31 28 27 27 29 25 29 38 50 55 65 77 80 76 77 86 91 94 98 95 93 94 94 88 85
12 9 9 7 10 10 12 6 5 4 6 4 7 1 14 7 15 19 28 7 23 28 24 17 15 18 19 29 37 46 67 82 83 81 81 84 90 94 94 91 91 92 95 96
7 1 8 13 5 4 13 10 14 9 5 6 14 12 10 7 9 3 10 19 23 18 16 16 18 21 18 19 26 37 45 69 82 82 81 82 81 86 89 90 88 89 88 92
2 3 1 7 11 9 9 12 3 6 4 11 2 4 15 15 10 3 16 25 31 33 34 34 34 27 22 21 24 26 33 45 58 68 75 77 77 80 83 84 84 85 84 86
13 8 16 10 14 17 14 14 10 12 7 8 4 11 10 7 13 14 20 30 41 44 43 45 46 45 37 28 24 21 27 33 41 50 58 64 70 73 75 76 76 77 78 77
12 10 1 5 6 13 10 9 11 12 4 6 9 11 19 15 4 15 27 43 54 46 36 38 42 44 55 56 55 57 41 32 35 39 46 54 57 60 63 63 63 66 69 69
14 5 2 2 7 8 9 13 7 5 5 8 8 8 11 9 15 21 29 38 42 38 36 25 27 39 52 53 56 56 56 51 38 39 42 45 45 47 49 50 55 59 59 60
12 8 2 5 11 18 6 6 4 9 9 10 2 10 12 6 19 15 19 43 42 41 49 50 45 36 50 47 50 49 53 56 51 43 34 29 27 28 34 41 47 52 52 56
6 9 9 10 3 7 6 12 12 9 10 6 6 11 8 21 22 24 34 47 47 53 56 59 61 49 49 53 53 53 54 55 53 49 41 35 30 35 44 45 49 55 59 61
12 2 6 9 7 3 5 4 4 9 7 14 8 10 10 25 16 37 46 60 49 45 43 42 43 50 55 58 59 56 49 44 44 49 53 52 53 54 54 57 58 64 68 70
15 6 6 13 8 7 8 2 5 7 7 10 23 20 14 18 24 50 62 61 55 40 28 38 45 50 55 57 59 57 57 54 49 49 53 58 59 59 61 64 68 72 74 78
7 7 5 5 7 5 8 8 11 11 7 9 3 21 8 16 19 37 38 36 27 31 33 31 33 37 39 40 43 50 52 50 53 52 54 58 61 66 69 70 72 75 78 79
2 9 5 1 6 11 9 17 16 13 10 17 16 39 23 39 23 21 34 24 28 30 33 38 40 42 44 47 49 51 57 63 59 59 63 64 65 66 68 72 74 74 71 72
8 10 6 6 6 7 13 18 24 12 10 15 21 32 13 10 10 19 20 20 30 36 34 35 38 40 42 45 50 54 59 66 69 66 64 63 64 67 66 67 69 71 69 68
12 10 6 7 5 5 7 4 3 22 19 17 18 9 7 12 28 24 12 27 40 45 44 45 46 48 47 47 48 49 52 57 62 65 63 60 59 58 57 61 66 68 68 68
9 9 6 9 8 13 19 11 12 14 13 11 11 4 9 30 33 16 15 37 46 45 50 50 51 53 56 58 61 61 60 58 57 60 64 65 63 63 60 60 62 66 69 69
2 5 11 6 10 18 11 2 7 15 15 14 18 8 5 14 8 7 28 42 43 50 53 56 54 56 58 59 64 68 67 67 67 62 60 60 66 71 70 67 66 62 63 65
10 6 22 11 8 15 14 15 3 9 12 19 7 8 16 7 17 44 44 42 51 58 60 58 52 52 55 59 64 66 68 70 73 74 74 72 66 62 68 70 69 70 64 59
16 14 9 8 9 22 13 12 18 8 13 17 18 23 21 23 26 39 55 60 67 70 69 65 62 62 62 63 67 68 69 69 70 69 71 69 68 73 71 67 64 61 61 60
3 13 11 17 14 11 15 11 0 9 10 8 8 3 17 25 39 47 61 72 78 76 74 69 65 66 64 66 68 72 70 68 66 66 62 61 59 59 62 63 56 54 51 48
8 10 6 7 11 13 13 6 20 9 15 4 21 31 41 50 51 50 55 67 75 81 80 73 70 68 70 68 67 68 68 68 67 63 59 58 60 60 56 52 48 46 41 36
15 16 9 6 8 1 11 8 16 15 34 36 48 55 54 36 47 53 64 72 79 80 76 74 76 78 78 75 70 66 63 60 60 57 57 61 59 54 50 47 42 38 33 30
20 13 10 9 14 6 22 46 54 43 52 56 51 48 41 42 52 61 76 77 73 77 79 81 79 79 78 75 73 66 62 56 56 61 63 59 54 50 49 43 34 26 19 15
Wind_Direction_500mb
102 94 183 202 186 134 138 142 181 238 189 158 230 258 264 279 288 278 273 269 264 261 264 262 257 253 250 246 242 242 238 237 237 236 234 235 236 236 237 240 241 242 242 243
46 218 212 168 181 186 208 181 250 295 87 175 279 269 262 257 264 271 277 279 275 270 268 264 257 255 251 251 248 244 244 242 241 240 242 240 241 242 243 245 244 242 240 243
158 228 152 168 174 146 166 164 197 206 345 298 336 294 310 293 261 277 280 282 283 277 280 277 268 262 258 255 252 248 248 248 247 244 241 241 242 243 245 245 244 240 241 244
217 255 134 153 183 139 185 207 187 160 80 241 45 286 305 271 292 286 279 302 296 290 283 291 294 282 268 261 261 258 252 250 250 247 246 248 249 250 252 249 247 246 240 239
231 190 157 152 195 148 220 149 136 98 114 29 330 68 275 302 277 288 310 359 68 60 57 44 360 352 314 273 267 265 257 252 250 250 251 252 253 257 257 256 254 250 246 244
176 144 156 185 95 154 143 77 44 53 72 295 220 171 292 226 220 350 19 66 43 34 21 360 336 326 322 305 288 275 268 256 252 251 253 256 259 259 260 259 258 257 255 250
48 240 153 143 81 35 79 84 351 344 354 230 10 124 243 262 233 310 64 39 51 46 35 24 18 2 330 314 305 290 274 266 259 257 257 259 262 263 265 266 264 262 260 256
154 241 172 195 175 175 183 154 157 203 208 275 294 240 243 250 252 48 64 74 52 37 35 29 23 21 14 354 337 319 299 286 272 265 263 264 264 265 267 267 266 266 265 263
155 247 145 134 142 146 193 191 177 101 43 50 232 291 305 326 51 92 76 47 22 16 21 33 28 34 30 27 23 21 360 320 292 276 267 265 265 264 266 269 270 270 268 268
200 143 344 181 117 36 156 165 85 6 160 258 269 252 221 245 64 51 36 17 18 16 9 20 22 19 7 3 2 3 7 0 335 300 280 270 267 266 268 271 270 269 272 271
150 125 242 131 197 170 140 167 102 127 154 181 248 259 222 107 105 94 31 18 22 28 13 8 359 347 351 352 354 354 354 351 346 340 310 291 281 279 282 281 280 275 274 273
172 127 158 190 301 197 155 174 154 139 229 235 161 252 124 120 117 53 20 7 358 350 344 340 338 341 340 340 340 338 337 335 332 325 318 297 290 301 301 293 289 282 278 275
165 152 82 7 3 12 145 60 203 109 78 211 146 256 182 112 60 7 352 341 345 345 347 346 333 321 316 316 323 329 332 326 320 315 311 301 290 291 292 289 286 285 280 273
95 79 155 187 150 117 132 58 66 137 159 205 230 266 250 350 1 331 327 331 334 342 346 325 318 314 310 307 308 311 311 312 309 301 297 291 289 290 290 287 283 283 283 278
64 114 104 126 135 131 181 194 191 199 176 193 357 299 265 292 279 293 321 338 354 349 348 347 338 331 327 321 310 309 313 312 308 304 297 293 290 289 286 284 281 281 280 278
5 124 100 234 202 197 231 230 222 231 207 257 253 266 287 278 318 13 359 20 23 10 360 353 349 344 338 330 324 316 310 312 310 302 299 296 290 284 283 283 284 283 282 279
120 128 115 258 18 81 307 221 199 202 189 222 243 252 327 6 55 347 343 22 9 3 357 348 343 342 340 336 332 326 315 308 307 306 302 300 299 295 292 288 286 286 286 283
130 110 108 167 49 228 250 87 175 219 240 229 268 328 28 323 315 308 214 3 352 347 340 333 332 326 322 321 320 318 321 319 316 311 307 305 302 300 299 297 294 289 285 283
143 123 118 147 198 313 286 234 177 169 252 221 231 77 358 340 333 335 155 345 337 338 335 330 327 321 315 314 313 313 313 311 315 318 314 310 307 304 302 300 297 292 288 284
1 79 164 136 168 210 224 35 184 104 277 147 146 165 276 344 341 235 322 324 333 334 335 333 326 323 319 317 313 308 310 310 312 306 308 314 316 310 306 305 301 298 293 289
183 180 211 191 214 280 242 181 12 124 243 169 201 283 306 238 262 302 312 320 326 333 334 331 326 324 322 322 316 315 311 309 304 305 304 305 302 305 309 310 308 304 298 290
168 169 202 177 198 250 217 126 171 192 156 185 235 255 266 270 282 299 309 318 322 325 326 325 321 319 320 322 320 318 313 310 306 303 302 300 301 300 296 296 296 295 293 292
208 182 179 185 203 212 133 101 237 174 272 262 213 168 320 301 301 308 311 314 316 319 320 319 314 312 312 317 317 315 316 310 306 304 301 299 299 298 300 296 292 290 284 281
260 164 194 91 235 233 279 66 161 237 214 292 307 311 314 311 307 298 305 308 310 311 314 315 311 309 308 313 312 311 312 310 308 305 305 304 304 303 299 293 288 286 286 282
209 152 177 262 276 287 292 305 128 293 299 298 301 301 301 297 291 299 303 305 306 306 306 305 305 304 306 308 308 306 305 304 303 305 307 309 303 300 296 289 284 279 276 274
178 175 178 211 179 177 271 286 297 293 298 299 297 295 292 298 296 300 300 300 300 300 300 300 300 299 300 302 303 303 303 298 299 301 302 302 298 292 287 280 272 267 257 250
Wind_Speed_850mb
4 8 13 20 13 8 10 6 4 3 3 8 14 15 22 44 43 46 55 59 60 63 57 51 49 53 59 62 64 66 73 75 80 85 85 84 86 85 84 81 79 76 73 72
10 8 13 8 8 8 6 5 7 4 1 5 8 21 21 25 41 56 57 56 62 64 62 57 54 53 55 61 68 70 70 74 81 86 88 91 86 90 88 87 86 83 79 79
13 7 15 10 8 11 6 10 7 8 4 4 7 17 12 10 14 26 41 42 38 40 37 33 44 51 56 62 63 72 74 73 73 82 89 94 97 96 92 92 91 87 84 81
6 4 10 8 8 9 9 7 4 5 6 7 5 11 12 12 18 18 46 31 28 27 27 29 25 29 38 50 55 65 77 80 76 77 86 91 94 98 95 93 94 94 88 85
12 9 9 7 10 10 12 6 5 4 6 4 7 1 14 7 15 19 28 7 23 28 24 17 15 18 19 29 37 46 67 82 83 81 81 84 90 94 94 91 91 92 95 96
7 1 8 13 5 4 13 10 14 9 5 6 14 12 10 7 9 3 10 19 23 18 16 16 18 21 18 19 26 37 45 69 82 82 81 82 81 86 89 90 88 89 88 92
2 3 1 7 11 9 9 12 3 6 4 11 2 4 15 15 10 3 16 25 31 33 34 34 34 27 22 21 24 26 33 45 58 68 75 77 77 80 83 84 84 85 84 86
13 8 16 10 14 17 14 14 10 12 7 8 4 11 10 7 13 14 20 30 41 44 43 45 46 45 37 28 24 21 27 33 41 50 58 64 70 73 75 76 76 77 78 77
12 10 1 5 6 13 10 9 11 12 4 6 9 11 19 15 4 15 27 43 54 46 36 38 42 44 55 56 55 57 41 32 35 39 46 54 57 60 63 63 63 66 69 69
14 5 2 2 7 8 9 13 7 5 5 8 8 8 11 9 15 21 29 38 42 38 36 25 27 39 52 53 56 56 56 51 38 39 42 45 45 47 49 50 55 59 59 60
12 8 2 5 11 18 6 6 4 9 9 10 2 10 12 6 19 15 19 43 42 41 49 50 45 36 50 47 50 49 53 56 51 43 34 29 27 28 34 41 47 52 52 56
6 9 9 10 3 7 6 12 12 9 10 6 6 11 8 21 22 24 34 47 47 53 56 59 61 49 49 53 53 53 54 55 53 49 41 35 30 35 44 45 49 55 59 61
12 2 6 9 7 3 5 4 4 9 7 14 8 10 10 25 16 37 46 60 49 45 43 42 43 50 55 58 59 56 49 44 44 49 53 52 53 54 54 57 58 64 68 70
15 6 6 13 8 7 8 2 5 7 7 10 23 20 14 18 24 50 62 61 55 40 28 38 45 50 55 57 59 57 57 54 49 49 53 58 59 59 61 64 68 72 74 78
7 7 5 5 7 5 8 8 11 11 7 9 3 21 8 16 19 37 38 36 27 31 33 31 33 37 39 40 43 50 52 50 53 52 54 58 61 66 69 70 72 75 78 79
2 9 5 1 6 11 9 17 16 13 10 17 16 39 23 39 23 21 34 24 28 30 33 38 40 42 44 47 49 51 57 63 59 59 63 64 65 66 68 72 74 74 71 72
8 10 6 6 6 7 13 18 24 12 10 15 21 32 13 10 10 19 20 20 30 36 34 35 38 40 42 45 50 54 59 66 69 66 64 63 64 67 66 67 69 71 69 68
12 10 6 7 5 5 7 4 3 22 19 17 18 9 7 12 28 24 12 27 40 45 44 45 46 48 47 47 48 49 52 57 62 65 63 60 59 58 57 61 66 68 68 68
9 9 6 9 8 13 19 11 12 14 13 11 11 4 9 30 33 16 15 37 46 45 50 50 51 53 56 58 61 61 60 58 57 60 64 65 63 63 60 60 62 66 69 69
2 5 11 6 10 18 11 2 7 15 15 14 18 8 5 14 8 7 28 42 43 50 53 56 54 56 58 59 64 68 67 67 67 62 60 60 66 71 70 67 66 62 63 65
10 6 22 11 8 15 14 15 3 9 12 19 7 8 16 7 17 44 44 42 51 58 60 58 52 52 55 59 64 66 68 70 73 74 74 72 66 62 68 70 69 70 64 59
16 14 9 8 9 22 13 12 18 8 13 17 18 23 21 23 26 39 55 60 67 70 69 65 62 62 62 63 67 68 69 69 70 69 71 69 68 73 71 67 64 61 61 60
3 13 11 17 14 11 15 11 0 9 10 8 8 3 17 25 39 47 61 72 78 76 74 69 65 66 64 66 68 72 70 68 66 66 62 61 59 59 62 63 56 54 51 48
8 10 6 7 11 13 13 6 20 9 15 4 21 31 41 50 51 50 55 67 75 81 80 73 70 68 70 68 67 68 68 68 67 63 59 58 60 60 56 52 48 46 41 36
15 16 9 6 8 1 11 8 16 15 34 36 48 55 54 36 47 53 64 72 79 80 76 74 76 78 78 75 70 66 63 60 60 57 57 61 59 54 50 47 42 38 33 30
20 13 10 9 14 6 22 46 54 43 52 56 51 48 41 42 52 61 76 77 73 77 79 81 79 79 78 75 73 66 62 56 56 61 63 59 54 50 49 43 34 26 19 15
Wind_Direction_850mb
102 94 183 202 186 134 138 142 181 238 189 158 230 258 264 279 288 278 273 269 264 261 264 262 257 253 250 246 242 242 238 237 237 236 234 235 236 236 237 240 241 242 242 243
46 218 212 168 181 186 208 181 250 295 87 175 279 269 262 257 264 271 277 279 275 270 268 264 257 255 251 251 248 244 244 242 241 240 242 240 241 242 243 245 244 242 240 243
158 228 152 168 174 146 166 164 197 206 345 298 336 294 310 293 261 277 280 282 283 277 280 277 268 262 258 255 252 248 248 248 247 244 241 241 242 243 245 245 244 240 241 244
217 255 134 153 183 139 185 207 187 160 80 241 45 286 305 271 292 286 279 302 296 290 283 291 294 282 268 261 261 258 252 250 250 247 246 248 249 250 252 249 247 246 240 239
231 190 157 152 195 148 220 149 136 98 114 29 330 68 275 302 277 288 310 359 68 60 57 44 360 352 314 273 267 265 257 252 250 250 251 252 253 257 257 256 254 250 246 244
176 144 156 185 95 154 143 77 44 53 72 295 220 171 292 226 220 350 19 66 43 34 21 360 336 326 322 305 288 275 268 256 252 251 253 256 259 259 260 259 258 257 255 250
48 240 153 143 81 35 79 84 351 344 354 230 10 124 243 262 233 310 64 39 51 46 35 24 18 2 330 314 305 290 274 266 259 257 257 259 262 263 265 266 264 262 260 256
154 241 172 195 175 175 183 154 157 203 208 275 294 240 243 250 252 48 64 74 52 37 35 29 23 21 14 354 337 319 299 286 272 265 263 264 264 265 267 267 266 266 265 263
155 247 145 134 142 146 193 191 177 101 43 50 232 291 305 326 51 92 76 47 22 16 21 33 28 34 30 27 23 21 360 320 292 276 267 265 265 264 266 269 270 270 268 268
200 143 344 181 117 36 156 165 85 6 160 258 269 252 221 245 64 51 36 17 18 16 9 20 22 19 7 3 2 3 7 0 335 300 280 270 267 266 268 271 270 269 272 271
150 125 242 131 197 170 140 167 102 127 154 181 248 259 222 107 105 94 31 18 22 28 13 8 359 347 351 352 354 354 354 351 346 340 310 291 281 279 282 281 280 275 274 273
172 127 158 190 301 197 155 174 154 139 229 235 161 252 124 120 117 53 20 7 358 350 344 340 338 341 340 340 340 338 337 335 332 325 318 297 290 301 301 293 289 282 278 275
165 152 82 7 3 12 145 60 203 109 78 211 146 256 182 112 60 7 352 341 345 345 347 346 333 321 316 316 323 329 332 326 320 315 311 301 290 291 292 289 286 285 280 273
95 79 155 187 150 117 132 58 66 137 159 205 230 266 250 350 1 331 327 331 334 342 346 325 318 314 310 307 308 311 311 312 309 301 297 291 289 290 290 287 283 283 283 278
64 114 104 126 135 131 181 194 191 199 176 193 357 299 265 292 279 293 321 338 354 349 348 347 338 331 327 321 310 309 313 312 308 304 297 293 290 289 286 284 281 281 280 278
5 124 100 234 202 197 231 230 222 231 207 257 253 266 287 278 318 13 359 20 23 10 360 353 349 344 338 330 324 316 310 312 310 302 299 296 290 284 283 283 284 283 282 279
120 128 115 258 18 81 307 221 199 202 189 222 243 252 327 6 55 347 343 22 9 3 357 348 343 342 340 336 332 326 315 308 307 306 302 300 299 295 292 288 286 286 286 283
130 110 108 167 49 228 250 87 175 219 240 229 268 328 28 323 315 308 214 3 352 347 340 333 332 326 322 321 320 318 321 319 316 311 307 305 302 300 299 297 294 289 285 283
143 123 118 147 198 313 286 234 177 169 252 221 231 77 358 340 333 335 155 345 337 338 335 330 327 321 315 314 313 313 313 311 315 318 314 310 307 304 302 300 297 292 288 284
1 79 164 136 168 210 224 35 184 104 277 147 146 165 276 344 341 235 322 324 333 334 335 333 326 323 319 317 313 308 310 310 312 306 308 314 316 310 306 305 301 298 293 289
183 180 211 191 214 280 242 181 12 124 243 169 201 283 306 238 262 302 312 320 326 333 334 331 326 324 322 322 316 315 311 309 304 305 304 305 302 305 309 310 308 304 298 290
168 169 202 177 198 250 217 126 171 192 156 185 235 255 266 270 282 299 309 318 322 325 326 325 321 319 320 322 320 318 313 310 306 303 302 300 301 300 296 296 296 295 293 292
208 182 179 185 203 212 133 101 237 174 272 262 213 168 320 301 301 308 311 314 316 319 320 319 314 312 312 317 317 315 316 310 306 304 301 299 299 298 300 296 292 290 284 281
260 164 194 91 235 233 279 66 161 237 214 292 307 311 314 311 307 298 305 308 310 311 314 315 311 309 308 313 312 311 312 310 308 305 305 304 304 303 299 293 288 286 286 282
209 152 177 262 276 287 292 305 128 293 299 298 301 301 301 297 291 299 303 305 306 306 306 305 305 304 306 308 308 306 305 304 303 305 307 309 303 300 296 289 284 279 276 274
178 175 178 211 179 177 271 286 297 293 298 299 297 295 292 298 296 300 300 300 300 300 300 300 300 299 300 302 303 303 303 298 299 301 302 302 298 292 287 280 272 267 257 250